This is the latest recevied weather packets stored in our database for station/object LA5PPA-1. If no packets are shown the sender has not sent any weather packets the latest 10 day(s).
| Time | Temp. | Humidity | Pressure | Rain* | Wind** | Luminosity | Snow |
|---|---|---|---|---|---|---|---|
| 1777731423 | 7.22° C | 70% | 1015.4 hPa | 0 mm | - | - | - |
| 1777731123 | 7.22° C | 70% | 1015.2 hPa | 0 mm | - | - | - |
| 1777730523 | 6.67° C | 72% | 1015.3 hPa | 0 mm | - | - | - |
| 1777730404 | 6.67° C | 72% | 1015.4 hPa | 0 mm | - | - | - |
| 1777730223 | 6.67° C | 71% | 1015.4 hPa | 0 mm | - | - | - |
| 1777729923 | 6.67° C | 74% | 1015.4 hPa | 0 mm | - | - | - |
| 1777729744 | 6.67° C | 74% | 1015.4 hPa | 0 mm | - | - | - |
| 1777729623 | 6.67° C | 73% | 1015.4 hPa | 0 mm | - | - | - |
| 1777729323 | 6.67° C | 76% | 1015.4 hPa | 0 mm | - | - | - |
| 1777729084 | 6.11° C | 76% | 1015.5 hPa | 0 mm | - | - | - |
| 1777729023 | 6.11° C | 76% | 1015.5 hPa | 0 mm | - | - | - |
| 1777728723 | 6.11° C | 80% | 1015.5 hPa | 0 mm | - | - | - |
| 1777728423 | 6.11° C | 79% | 1015.6 hPa | 0 mm | - | - | - |
| 1777728123 | 5.56° C | 81% | 1015.8 hPa | 0 mm | - | - | - |
| 1777727824 | 5.56° C | 80% | 1015.8 hPa | 0 mm | - | - | - |
| 1777727764 | 5.56° C | 81% | 1015.8 hPa | 0 mm | - | - | - |
| 1777727523 | 5.56° C | 80% | 1015.9 hPa | 0 mm | - | - | - |
| 1777727223 | 5.56° C | 81% | 1016.1 hPa | 0 mm | - | - | - |
| 1777727104 | 5.56° C | 81% | 1016.1 hPa | 0 mm | - | - | - |
| 1777726923 | 5.56° C | 80% | 1016.1 hPa | 0 mm | - | - | - |
| 1777726623 | 5.56° C | 80% | 1016.3 hPa | 0 mm | - | - | - |
| 1777726444 | 5.56° C | 80% | 1016.4 hPa | 0 mm | - | - | - |
| 1777726323 | 5.56° C | 79% | 1016.4 hPa | 0 mm | - | - | - |
| 1777726023 | 5.56° C | 79% | 1016.5 hPa | 0 mm | - | - | - |
| 1777725784 | 5.56° C | 78% | 1016.5 hPa | 0 mm | - | - | - |
* Rain latest hour (hover to see other rain measurements)
** Current wind speed in m/s (hover to see current wind gust speed)